Regional Weather Roundup
Issued by NWS

Home | Current Version | Previous Version | Text Only | Print | Product List | Glossary On
Versions: 1 2 3 4 5 6 7 8 9 10 11 12 13 14 15 16 17 18 19 20 21 22 23 24 25 26 27 28 29 30 31 32 33 34 35 36 37 38 39 40 41 42 43 44 45 46 47 48 49 50
000
ASUS42 KFFC 210010
RWRGA
WEATHER ROUNDUP FOR GEORGIA
NATIONAL WEATHER SERVICE PEACHTREE CITY GA
800 PM EDT WED SEP 20 2017

NOTE: "FAIR" INDICATES FEW OR NO CLOUDS BELOW 12,000 FEET WITH NO
SIGNIFICANT WEATHER AND/OR OBSTRUCTIONS TO VISIBILITY.

* = USE WITH CAUTION. THE STATIONS MARKED WITH AN ASTERISK MAY NOT
REPORT WEATHER SUCH AS PRECIPITATION, FOG, OR THUNDER AND ARE NOT
QUALITY CONTROLLED BY NWS.

THE REMARK "TC" DENOTES TEMPERATURE READING IN DEGREES CELSIUS.

GAZ001>058-210100-
NORTH GEORGIA

CITY           SKY/WX    TMP DP  RH WIND       PRES   REMARKS
ATLANTA        MOCLDY    81  65  58 NW8       30.02R
6HR MIN TEMP:  81; 6HR MAX TEMP:  89;

ATHENS         CLEAR     75  69  81 CALM      30.00R
6HR MIN TEMP:  75; 6HR MAX TEMP:  91;

CHAMBLEE       CLEAR     80  64  58 NW3       30.01R
6HR MIN TEMP:  80; 6HR MAX TEMP:  89;

PEACHTREE CITY PTCLDY    77  74  90 CALM      30.02R
6HR MIN TEMP:  77; 6HR MAX TEMP:  91;

ROME           CLEAR     77  74  90 CALM      30.00R
6HR MIN TEMP:  77; 6HR MAX TEMP:  90;

WEST ATLANTA   PTCLDY    78  70  76 CALM      30.01R
6HR MIN TEMP:  78; 6HR MAX TEMP:  89;

GAINESVILLE    CLEAR     79  67  66 SW3       30.04R
6HR MIN TEMP:  79; 6HR MAX TEMP:  88;

CARTERSVILLE   CLEAR     73  71  93 CALM      30.01R
6HR MIN TEMP:  73; 6HR MAX TEMP:  89;



CITY           SKY/WX    TMP DP  RH WIND       PRES   REMARKS
DALTON*        CLEAR     75  72  88 CALM      30.02S
LAWRENCEVILLE* CLEAR     81  66  61 W7        30.02R
MARIETTA       MOCLDY    81  65  58 CALM      30.02R
KENNESAW*      CLEAR     79  66  65 VRB3      30.03
CANTON*        CLEAR     79  70  73 CALM      30.04S
$$

GAZ059>098-102>109-210100-
CENTRAL GEORGIA

CITY           SKY/WX    TMP DP  RH WIND       PRES   REMARKS
AUGUSTA-BUSH   CLEAR     79  73  82 CALM      29.96R
6HR MIN TEMP:  78; 6HR MAX TEMP:  94; 6HR PCP: TRACE;

AUGUSTA-DANIEL CLEAR     86  67  52 CALM      29.99R
6HR MIN TEMP:  86; 6HR MAX TEMP:  93;

COLUMBUS       CLEAR     86  67  52 N3        29.98R
6HR MIN TEMP:  86; 6HR MAX TEMP:  92;

MACON          MOCLDY    82  71  69 CALM      29.98R
6HR MIN TEMP:  82; 6HR MAX TEMP:  94;

ROBINS AFB     MOCLDY    82  73  75 SE5       29.98R


CITY           SKY/WX    TMP DP  RH WIND       PRES   REMARKS
LAGRANGE*      CLEAR     76  76  98 CALM      30.00R
SYLVANIA*      CLEAR     80  76  89 CALM      29.99S
MILLEDGEVILLE* PTCLDY    81  73  78 CALM      29.98S
$$

GAZ099>101-110>166-210100-
SOUTH GEORGIA

CITY           SKY/WX    TMP DP  RH WIND       PRES   REMARKS
SAVANNAH       CLOUDY    77  69  76 S3        29.99R
6HR MIN TEMP:  76; 6HR MAX TEMP:  93;

VALDOSTA       TSTM      72  72 100 CALM      29.99F FOG
6HR MIN TEMP:  72; 6HR MAX TEMP:  89; 6HR PCP:  0.29;

ALMA           CLOUDY    75  71  87 CALM      29.98R
6HR MIN TEMP:  75; 6HR MAX TEMP:  93; 6HR PCP:  0.01;

ST SIMONS      CLOUDY    82  72  71 SE9       29.98S
6HR MIN TEMP:  82; 6HR MAX TEMP:  90;

FT STEWART     CLOUDY    76  67  74 SE5       29.96S
ALBANY         CLEAR     83  74  74 NW3       29.98R
HUNTER AFB     CLOUDY    74  70  88 SE5       29.96S
MOODY AFB      PTCLDY    73  72  94 CALM      29.99R
BRUNSWICK      CLOUDY    81  70  69 SE7       29.99R


CITY           SKY/WX    TMP DP  RH WIND       PRES   REMARKS
BAINBRIDGE*    CLOUDY    82  79  89 W3        29.97S HX  93
MOULTRIE*      MOCLDY    73  70  88 CALM      30.00S
VIDALIA*       CLEAR     81  73  78 CALM      29.98S
WAYCROSS*      CLOUDY    79  71  76 NW3       29.98R
DOUGLAS*       PTCLDY    73  72  94 CALM      30.00R
$$




USA.gov is the U.S. government's official web portal to all federal, state and local government web resources and services.